Find Tianzhou-9

NORAD ID: 64786 Int'l Des: 2025-149 Owner: CMSEO Country: CN operational
LEOCIRCULAR

リアルタイム位置

3D地球を読み込み中...

Tianzhou-9について

説明を読み込み中...

次回通過

Passes for default location (London). Set your location on the main map for personalized predictions.

高度履歴

Loading altitude history...

軌道要素

1 64786U 25149A 26104.14683641 .00015982 00000-0 17868-3 0 9996
2 64786 41.4686 352.1325 0005452 204.5875 155.4705 15.62370155283678
Epoch: Apr 14, 2026 • Age: 21 hours

現在のステータス

高度 391.0 km
速度 7.68 km/s
衛星直下点 -41.40°S, 37.46°E
打ち上げ日 Jul 14, 2025
運用期間 0.7 years
タイプ other

技術仕様

分類 Payload
質量 6683.00 kg
乾燥質量 6000.00 kg
総質量 13200.00 kg
長さ 9.00 m
直径 3.35 m
スパン 9.00 m
形状 Step cyl + 2 pan
製造者 CAST
バスタイプ Tianzhou
フェーズステータス Docked
所有者/国 CMSEO/CN

Most Searched